Theta_e
319 320 320 320 320 318 319 318 318 318 318 319 319 319 318 318 317 317 315 316 322 326 326 327 327 327 325 325 323 322 322 322 321 320 320 320 319 318 318 318 318 317 316
320 320 320 320 320 320 319 318 317 317 317 317 317 318 318 318 318 317 317 315 320 325 326 327 328 329 328 327 327 325 325 323 323 322 320 320 320 319 319 318 318 317 317
321 320 319 319 319 320 319 317 316 316 315 316 315 316 316 317 316 317 316 316 316 319 323 326 328 328 329 330 329 329 328 326 325 324 322 321 320 320 319 318 318 318 317
324 320 319 319 319 319 317 315 314 314 313 314 313 314 312 313 314 314 314 315 315 315 318 323 326 327 328 329 330 330 330 329 328 326 324 323 322 321 320 319 319 318 318
327 323 320 319 319 317 315 315 314 314 313 314 313 313 313 312 312 314 314 314 315 316 317 318 320 321 325 327 329 330 331 330 330 329 328 327 325 322 321 321 320 319 319
328 327 326 324 322 319 316 317 316 315 313 312 312 310 312 310 311 312 313 313 313 313 314 315 316 315 318 323 326 328 329 330 331 330 330 328 327 326 325 324 321 320 320
328 327 325 325 324 320 318 317 316 313 313 312 310 310 309 310 310 310 312 310 311 312 311 312 313 315 315 320 323 326 328 329 329 330 330 330 329 328 327 326 325 323 321
328 326 325 324 323 322 321 318 316 313 313 313 310 307 304 305 307 311 310 310 310 310 310 310 311 311 312 314 314 320 324 326 328 329 330 330 329 329 329 327 327 326 325
328 325 325 323 322 321 320 319 317 315 314 312 312 310 304 302 305 311 310 310 308 307 307 308 309 309 310 311 313 314 319 320 322 323 325 326 328 329 328 329 329 328 326
327 326 324 323 322 321 320 319 318 318 315 313 309 309 311 309 306 305 307 309 308 308 307 307 306 307 309 309 309 308 310 314 316 318 320 321 322 323 324 326 327 327 328
317 317 320 322 322 321 321 320 319 317 317 315 311 309 305 305 305 302 303 306 307 307 307 306 309 310 308 308 307 307 308 311 312 312 314 316 318 318 320 321 322 323 324
306 305 306 307 308 310 312 315 315 313 314 314 315 314 308 307 307 302 303 305 306 308 309 309 307 307 308 307 305 304 307 310 311 312 312 313 314 315 316 318 319 320 320
299 299 301 301 302 302 303 304 304 304 305 305 305 305 307 308 309 307 305 304 303 305 306 307 308 305 307 308 307 302 303 306 309 310 310 311 312 312 313 314 316 316 317
296 296 296 297 298 298 299 299 299 300 301 300 300 301 304 305 304 305 306 303 298 299 300 302 303 302 306 306 304 300 303 303 305 307 308 309 310 311 311 312 313 313 314
295 294 294 294 294 295 296 295 295 295 296 296 296 297 298 301 302 303 303 302 300 295 295 296 301 303 302 302 302 304 303 301 304 306 307 308 308 309 309 309 311 311 312
292 292 291 292 292 292 293 293 293 293 293 293 294 293 294 296 297 298 298 299 299 297 292 297 298 301 302 301 300 300 301 298 300 302 304 304 305 306 307 307 308 309 309
290 290 290 290 290 290 290 290 290 291 290 290 290 290 291 292 293 294 295 295 295 294 292 293 296 297 296 297 297 298 297 298 298 299 300 301 302 303 303 303 304 305 305
288 288 288 288 288 288 289 288 288 289 288 287 288 288 289 291 289 290 290 290 291 291 291 288 291 292 292 294 294 294 296 296 296 297 299 300 300 300 301 301 301 301 301
286 287 287 286 286 287 287 287 288 288 287 287 287 287 287 287 286 286 287 288 288 289 288 287 287 289 290 291 291 292 292 293 292 293 296 297 298 298 299 299 299 299 298
285 285 286 286 286 286 286 286 287 287 286 286 286 286 286 285 284 285 286 286 287 286 286 285 285 286 288 289 290 288 288 290 291 291 292 292 294 294 295 296 296 295 294
284 284 284 283 283 284 286 285 285 285 284 285 284 284 284 285 286 287 286 286 286 285 285 284 284 285 285 286 286 288 287 288 288 289 289 290 288 288 288 290 289 289 290
281 281 281 281 281 283 286 287 286 284 285 284 283 284 284 285 286 287 287 288 287 285 284 284 284 283 284 285 286 285 285 283 282 286 285 286 287 286 286 284 288 289 290
280 280 280 280 280 280 285 286 286 284 284 284 283 283 283 284 284 284 286 287 287 288 289 286 284 283 283 285 285 284 284 284 283 285 285 283 284 282 284 285 287 288 289
278 278 278 278 278 280 284 286 286 284 284 284 284 284 283 283 284 284 285 285 285 285 285 286 285 285 285 286 286 284 283 283 284 285 284 279 279 281 278 282 284 286 289
275 274 278 274 274 277 283 285 285 283 283 283 284 284 284 283 285 287 285 283 284 284 286 288 288 288 289 289 286 283 280 280 280 277 281 280 276 275 273 278 279 284 291
276 276 275 274 274 273 281 285 285 283 282 283 284 284 284 285 286 287 284 284 282 282 282 283 284 285 283 280 281 277 276 276 275 273 278 276 276 275 273 276 277 278 288
Wind_Speed
3 3 3 3 3 3 3 3 3 3 2 3 3 3 3 4 5 3 2 9 11 12 12 12 12 13 13 13 13 14 14 14 14 14 14 15 15 14 15 15 14 15 15
3 2 2 3 2 3 3 3 4 3 4 3 5 5 6 5 5 6 4 4 12 13 15 16 16 16 16 16 17 17 17 17 18 17 18 18 18 17 18 18 18 18 18
3 3 2 2 3 2 3 1 2 2 2 3 5 5 5 6 5 6 5 4 5 11 15 20 19 19 20 20 20 20 21 21 21 21 21 20 20 20 21 21 21 20 21
4 2 3 3 3 1 1 0 1 3 4 4 3 4 4 5 6 6 5 5 5 5 9 20 21 23 23 23 24 23 24 24 24 24 24 25 26 26 25 24 24 24 23
4 4 2 3 2 2 2 2 1 1 3 4 4 4 5 5 6 5 9 11 10 10 8 11 17 20 24 26 26 26 27 27 27 26 26 27 27 28 29 29 29 28 28
4 3 3 4 3 3 3 1 3 2 3 4 4 6 6 7 7 9 11 9 9 11 10 11 9 9 18 24 27 29 29 30 28 28 28 29 30 30 30 31 32 32 32
5 4 3 4 3 4 4 4 3 4 3 2 2 4 5 8 9 8 8 7 9 10 9 9 7 8 8 20 27 28 31 33 32 31 30 29 31 33 34 34 34 35 35
5 4 5 4 4 3 4 4 4 2 3 3 3 2 4 4 4 6 6 7 10 6 7 7 9 9 9 9 13 24 28 30 32 33 32 32 31 33 34 38 37 37 37
6 6 6 5 5 4 4 4 4 5 5 3 6 3 4 4 4 4 6 5 6 4 5 7 8 9 10 9 12 16 23 27 31 32 32 33 32 34 34 34 34 37 39
3 3 4 4 4 3 4 4 3 5 3 5 1 4 7 4 7 10 1 4 5 6 6 5 6 7 10 9 12 16 19 22 25 28 30 32 34 34 35 35 35 34 35
10 9 9 8 5 3 3 4 4 4 2 4 3 2 3 3 3 6 15 10 6 6 7 8 9 8 10 10 10 12 17 22 24 26 28 29 31 33 34 34 35 35 35
6 8 7 6 6 7 6 5 4 5 4 4 4 4 2 5 6 4 9 15 16 10 10 6 7 8 9 9 11 17 20 23 25 27 25 26 28 30 31 31 31 32 33
4 6 6 6 4 5 5 5 5 5 4 4 5 4 4 6 7 9 12 13 15 13 10 7 6 8 8 9 10 13 15 21 24 25 25 26 26 27 29 30 30 30 30
4 5 6 6 6 6 6 6 4 4 5 5 7 5 5 5 4 6 8 10 17 16 12 14 4 5 6 7 9 13 11 15 20 24 25 27 26 26 26 29 29 30 30
4 6 6 6 6 7 6 6 4 5 5 5 5 5 5 5 5 6 7 6 9 17 23 5 10 5 4 4 8 10 10 13 19 23 25 25 27 26 27 28 29 30 31
6 6 6 6 6 6 6 6 5 5 5 4 4 6 6 5 6 5 6 7 6 9 20 12 12 13 11 9 7 9 11 16 17 20 24 25 25 27 27 28 29 29 30
6 6 6 6 6 6 5 5 5 5 6 6 6 6 9 6 6 6 6 7 7 7 13 21 12 14 16 14 13 9 8 11 10 18 21 24 24 24 25 27 27 28 27
5 5 5 5 5 5 5 6 6 6 6 8 9 8 10 8 9 9 6 9 8 9 10 20 18 15 17 16 15 15 12 9 10 16 21 24 24 24 24 25 26 26 27
4 4 5 6 7 7 7 7 5 5 6 7 8 9 10 10 10 8 9 9 10 10 10 11 17 13 16 12 14 12 13 11 9 15 22 25 25 26 27 25 25 25 25
5 6 6 6 7 7 7 6 7 7 8 8 9 9 10 10 10 11 11 13 11 9 9 10 12 14 12 12 10 11 13 10 12 8 12 16 21 23 24 25 25 23 23
5 5 6 7 6 7 6 10 8 7 6 9 9 9 9 11 16 14 11 11 12 10 10 10 11 12 13 12 12 10 11 12 12 10 10 10 7 7 8 14 16 20 22
6 6 6 6 7 6 15 16 14 9 11 12 11 12 12 11 14 18 20 22 18 13 14 11 11 12 14 12 10 10 11 13 14 2 6 11 7 8 7 5 17 21 21
5 5 5 5 7 5 14 16 17 10 11 11 12 12 12 8 11 12 16 20 17 19 19 15 15 14 16 13 14 16 13 10 12 12 12 12 2 4 6 9 19 20 18
5 5 6 5 6 6 15 16 17 10 10 11 10 10 11 12 12 14 14 11 10 10 11 9 11 15 13 12 11 9 12 12 11 9 5 4 3 3 3 5 17 19 20
3 3 4 5 6 8 16 16 15 11 9 9 7 7 9 12 16 22 14 14 12 10 10 18 20 21 21 18 15 8 8 9 8 3 3 3 3 4 2 6 10 22 12
4 5 6 5 6 7 14 15 15 6 9 7 6 7 11 13 20 21 12 9 11 9 10 10 9 9 10 10 14 7 7 7 4 4 3 3 4 4 5 2 9 12 8
Wind_Direction
175 159 194 183 192 167 180 190 201 225 255 281 288 282 271 269 277 263 239 236 230 231 245 254 251 248 253 247 247 249 245 245 240 236 236 240 238 234 231 230 225 225 224
173 174 176 181 199 187 189 197 203 216 236 244 266 266 269 274 266 268 257 247 238 237 242 252 255 255 255 252 243 244 245 245 245 241 241 240 243 240 240 234 233 233 233
188 180 195 214 226 216 212 234 283 281 270 270 265 267 260 258 261 270 278 268 258 247 245 249 254 256 257 255 249 244 240 239 240 239 237 238 244 245 244 242 239 238 238
172 182 186 218 228 204 179 183 271 295 282 263 269 273 283 286 278 270 267 258 243 240 247 245 248 254 256 256 257 255 248 244 241 238 237 235 229 229 233 240 244 238 236
201 185 209 241 201 177 174 189 237 236 279 289 289 285 281 274 267 264 260 256 250 248 247 247 241 248 250 254 258 260 263 256 248 243 237 234 235 236 235 231 229 230 230
199 221 232 241 192 201 232 217 236 231 243 259 289 289 269 262 260 259 262 265 258 257 251 248 245 249 250 253 260 263 264 265 264 258 249 240 237 233 234 234 233 232 231
201 218 230 241 216 220 225 217 213 238 276 225 260 278 268 248 251 248 256 252 257 256 246 246 241 246 255 251 255 256 261 264 266 264 262 257 250 241 236 232 232 234 234
201 215 218 228 228 235 237 237 210 242 245 203 245 255 300 299 261 260 248 245 251 258 251 246 250 251 248 252 252 256 264 268 269 271 269 268 263 263 254 243 234 230 229
208 210 218 217 221 210 239 230 217 212 255 255 217 224 286 269 303 237 243 253 264 258 252 249 243 244 250 252 255 259 261 264 270 272 273 276 273 272 272 267 269 250 239
254 245 252 242 238 225 242 245 229 235 231 258 233 224 255 299 303 307 359 286 267 270 271 263 253 247 249 253 250 248 253 258 265 270 272 274 277 279 279 276 276 275 272
50 35 34 28 14 0 339 338 324 307 273 277 238 226 234 256 253 264 302 295 282 245 247 247 256 255 253 250 252 253 252 255 260 263 265 268 272 275 279 281 282 282 280
40 35 28 27 26 21 11 2 350 350 341 322 311 309 265 290 288 273 287 299 297 295 288 252 244 252 252 250 252 250 246 248 254 258 264 267 270 274 277 279 280 281 283
32 21 26 25 23 17 16 11 3 351 332 321 312 305 302 294 297 302 300 299 301 302 294 275 252 242 248 255 255 255 256 260 266 269 273 272 272 273 277 279 281 282 282
50 27 30 28 21 18 13 9 2 351 351 343 331 318 307 296 290 286 290 303 303 300 297 298 250 250 253 256 254 264 269 270 272 273 273 272 272 274 275 277 278 280 279
43 33 32 27 15 14 13 8 5 348 347 344 326 324 318 310 305 298 298 295 298 307 299 297 298 280 268 261 262 266 265 262 260 264 271 280 275 275 277 275 277 277 276
37 38 26 23 14 11 5 1 349 337 350 333 333 324 316 312 306 292 287 286 277 287 291 305 303 309 310 309 283 272 274 271 272 269 272 272 275 280 279 283 283 282 280
26 30 22 18 9 356 357 351 340 337 346 334 327 321 311 305 305 304 300 295 290 284 283 295 299 306 304 307 308 302 278 280 277 268 268 271 275 278 282 285 287 285 283
34 27 18 8 358 352 347 347 334 331 343 334 324 322 314 319 310 308 304 299 289 288 288 290 298 303 301 306 297 293 290 288 274 279 273 275 275 276 277 281 281 282 282
28 19 21 11 355 349 340 332 320 326 326 317 312 313 307 313 309 309 303 301 301 300 294 289 294 301 301 301 297 298 298 292 272 268 277 282 281 277 275 277 278 277 278
27 17 7 355 342 331 320 310 323 321 312 309 302 302 304 307 307 311 309 310 305 301 293 287 289 297 299 301 293 298 298 298 298 293 272 269 273 275 282 286 286 287 285
22 6 354 341 328 328 327 335 325 311 302 310 308 306 304 306 307 312 319 314 308 302 301 293 292 294 295 303 302 303 297 307 303 298 287 287 278 280 277 282 288 293 292
8 355 344 327 320 327 329 334 337 328 328 323 323 325 327 322 326 316 311 303 305 304 301 297 293 293 296 303 304 304 304 303 306 263 309 296 276 275 281 296 295 296 297
346 330 314 309 308 305 329 338 340 331 329 328 328 328 329 325 315 309 307 303 296 290 296 301 299 303 303 310 306 304 301 299 300 303 295 293 299 305 304 310 309 305 298
336 317 307 293 298 312 325 332 340 337 332 331 324 325 322 312 308 313 313 314 315 298 288 286 280 286 287 295 303 313 310 300 289 291 313 301 344 299 318 328 328 320 308
308 267 310 310 306 305 323 332 343 335 325 312 304 314 308 304 305 321 323 314 314 306 308 310 311 317 322 340 351 335 332 318 321 336 343 308 343 294 329 331 333 332 301
314 323 315 298 286 296 322 332 339 326 314 305 289 293 303 320 325 326 318 315 313 321 335 328 336 348 13 357 9 6 336 330 318 330 332 344 336 349 336 316 350 351 70